Voltar ao catálogo

STARLINK-5492

AtivoComunicaçõesVLEO
NORAD 55331·PAYLOAD·🇺🇸 United States

Lançado Jan 26, 2023 de Cape Canaveral Space Force Station

Loading…

Próximas Passagens (próximas 24 horas)

TLE

AtualizadoSource: CelesTrak SupGP

Época: Sep 14, 2026, 22:03 UTC

1 55331C 23013A   26257.91923611 -.00039910  00000+0 -14457-2 0  2573
2 55331  43.0016 314.8318 0001209 270.2126  53.8188 15.27594929    10

Acompanhe STARLINK-5492 em tempo real com AllMySat

Download on the App Store